ATLAS 5 CENTAUR DEB, 44668

Orbit data source: Space-Track

ATLAS 5 CENTAUR DEB, 44668 is space debris in HEO originally from a launch on Wed, 17 Oct 2018 UTC launched from the Air Force Eastern Test Range (AFETR). Debris objects in space refer to the collection of defunct objects orbiting the Earth. Examples of debris include non-operational satellites, rocket bodies, and fragments generated from explosions, collisions, or faulty payload assembly.

Loading next visibility...
ATLAS 5 CENTAUR DEB details
Identifier
44668, 2018-079AE
Orbit
HEO
Last TLE update5 days ago
Origin
Flag of USULA (US)
ManufacturerULA Decatur
MissionSpacecraft
Bus & MotorUnknown
MassUnknown
Launch date (UTC)
2018-10-17 (6 years ago)
Launch vehicleUnknown
Launch site
Air Force Eastern Test Range (AFETR)
Object type
Payload
Rocket body
Debris
Shape & HBRUnknown
Radar Cross SectionRCS unknown

Expand to show TLE details & history

TLE from 5 days ago
0 ATLAS 5 CENTAUR DEB
1 44668U 18079AE  25020.41704892 -.00000116  00000-0  00000-0 0  9996
2 44668  13.0259  49.5391 4550854 292.0013  26.3801  1.97453978 40703
Epoch: 2025-01-20T10:00Z
Definitive object data (Epoch: 2025-01-20T10:00:33.026Z)
Latitude0.00003°
Longitude139.40517°
Altitude11,815.662 km
Speed5.382 km/s
True Right ascension03h 18m 19s
True Declination0° 00' 00"
Sunlit
Object was in daylight at TLE epoch
Visualization TLE readout
Latitude5.29126°
Longitude-64.68899°
Altitude25,517.527 km
Speed3.185 km/s
Apparent Right ascension13h 10m 52s
Apparent Declination-1° 55' 08"
Sunlit
Object is in daylight
Visualization observer readout
Local Sidereal Time21:06:10
Azimuth287.941° WNW
Elevation-23.02°
Doppler factor1
Orbital elements
Apogee altitude32,677.292 km
Perigee altitude8,247.722 km
Semi-major axis26,840.644 km
Eccentricity0.4550854
Inclination13.0259°
RAAN49.5391°
Arg. of periapsis292.0013°
True anomaly67.83165°
Mean anomaly26.3801°
Eccentric anomaly44.73066°
Mean motion0.49358 °/min
BSTARUnknown
Orbital period729.37 mins
Loading maneuver chart data...

ATLAS 5 CENTAUR DEB Visibility forecast

Observer location: undefined°, undefined

Span
Click to sort rows by Start time (UTC) header in descending order
Start Az.
Max El. time (UTC)
Max El. Az.
Max El.
End time (UTC)
End Az.
543 mins2025-01-25 22:51:10.954Z201.144° SSW2025-01-25 23:29:10.954Z147.305° SSE19.96°2025-01-26 07:54:10.954Z101.628° ESE
|